Location: Krakow
(50.0830°N, 19.9170°E)
Time: 18:53:24
(UTC+01:00)

SR - Pass Details

Date: 09 February 2023
Orbit: 582 x 867 km, 66.7° (Epoch: 20 March)

Event Time Altitude Azimuth Distance (km) Brightness Sun altitude
Rises 20:54:05 0° 323° (NW) 2,866 ? -39.1°
Enters shadow 20:56:01 - 324° (NW) 2,079 ? -39.4°
Reaches altitude 10° 20:56:22 10° 324° (NW) 1,937 - -39.5°
Maximum altitude 21:00:41 84° 53° (NE) 594 - -40.1°
Drops below altitude 10° 21:04:56 10° 142° (SE) 1,902 - -40.6°
Sets 21:07:09 0° 143° (SE) 2,809 - -41.0°
